Stations météo

réclame
Mon MeteoGroup
Lanveoc Poulmic, France (7109): Température de l'air & dewpoint: 22.02.2020 20:00:00 - 28.02.2020 20:00:00 (CET)Lanveoc Poulmic, France (7109): Vitesse du vent & gusts: 22.02.2020 20:00:00 - 28.02.2020 20:00:00 (CET)Lanveoc Poulmic, France (7109): Direction du vent: 22.02.2020 20:00:00 - 28.02.2020 20:00:00 (CET)Lanveoc Poulmic, France (7109): reduced air pressure: 22.02.2020 20:00:00 - 28.02.2020 20:00:00 (CET)Lanveoc Poulmic, France (7109): visibility: 22.02.2020 20:00:00 - 28.02.2020 20:00:00 (CET)Lanveoc Poulmic, France (7109): Quantités de précipitations: 22.02.2020 20:00:00 - 28.02.2020 20:00:00 (CET)
Date & Time tt [°C] td [°C] ff [km/h] ff [knt] fx [km/h] fx [knt] dd ppp [hPa] vv [km] rr [mm]
28.02.2020 20:00:00 11,2 10,1 35 19 56 30 SSW 1003,0 10 0,2
28.02.2020 19:00:00 11,3 10,0 37 20 59 32 SSW 1003,8 4,1 0,0
28.02.2020 18:00:00 11,5 9,6 36 19 58 31 SSW 1004,7 19 0,0
28.02.2020 17:00:00 11,7 10,1 34 18 63 34 SSW 1005,8 10 0,0
28.02.2020 16:00:00 11,7 10,4 37 20 60 33 SSW 1006,6 10 0,2
28.02.2020 15:00:00 11,3 10,7 35 19 54 29 SSW 1007,5 1,4 5,5
28.02.2020 14:00:00 11,7 11,1 32 17 56 30 SW 1008,3 7 0,0
28.02.2020 13:00:00 11,7 11,1 33 18 54 29 SW 1009,4 4,8 0,0
28.02.2020 12:00:00 11,3 10,8 29 16 57 31 SW 1010,0 2,7 0,0
28.02.2020 11:00:00 11,3 11,0 31 17 49 27 SW 1010,5 2,4 0,4
28.02.2020 10:00:00 11,3 11,0 32 17 49 26 SSW 1010,8 3,3 0,2
28.02.2020 09:00:00 11,1 10,6 29 16 51 27 SW 1011,0 3,9 0,0
28.02.2020 08:00:00 11,1 10,8 29 16 45 24 SW 1011,4 5 0,0
28.02.2020 07:00:00 9,4 9,1 18 10 42 23 S 1011,5 4,5 1,0
28.02.2020 06:00:00 8,4 8,0 21 11 43 23 S 1012,4 5 0,4
28.02.2020 05:00:00 7,6 7,0 24 13 42 23 S 1013,1 5 0,0
28.02.2020 04:00:00 7,2 6,1 22 12 40 21 S 1014,4 10 0,2
28.02.2020 03:00:00 6,7 4,4 19 11 30 16 SSE 1015,6 7 0,2
28.02.2020 02:00:00 6,5 3,3 12 7 22 12 SE 1016,5 20 0,0
28.02.2020 01:00:00 6,1 3,3 11 6 18 10 SSE 1017,5 10 0,0
28.02.2020 00:00:00 5,8 3,1 11 6 20 11 SSE 1017,5 10 0,0
27.02.2020 23:00:00 5,5 2,3 8 4 12 6 S 1018,0 20 0,0
27.02.2020 22:00:00 5,6 1,5 4 2 7 4 SSE 1017,9 37 0,0
27.02.2020 21:00:00 5,6 1,5 4 2 6 3 SSW 1017,9 45 0,0
27.02.2020 20:00:00 5,7 1,6 5 3 16 9 NW 1017,5 10 0,0
27.02.2020 19:00:00 6,4 1,3 13 7 21 11 NW 1016,5 57 0,0
27.02.2020 18:00:00 7,8 1,6 13 7 26 14 NNW 1015,6 52 0,0
27.02.2020 17:00:00 9,8 2,4 16 9 32 17 NNW 1014,6 10 0,0
27.02.2020 16:00:00 9,6 2,2 21 11 37 20 NW 1013,7 33 0,0
27.02.2020 15:00:00 9,5 4,1 18 10 39 21 NNW 1012,3 10 0,0
27.02.2020 14:00:00 9,7 5,3 22 12 50 27 NNW 1011,2 49 0,0
27.02.2020 13:00:00 10,2 4,1 29 16 52 28 N 1009,9 10 0,0
27.02.2020 12:00:00 9,3 4,3 27 15 52 28 N 1008,0 33 0,0
27.02.2020 11:00:00 7,8 4,4 32 17 55 30 NNW 1006,5 20 0,0
27.02.2020 10:00:00 7,9 5,5 33 18 63 34 NW 1004,2 17 0,0
27.02.2020 09:00:00 8,2 5,7 35 19 68 37 NW 1001,7 10 0,0
27.02.2020 08:00:00 9,7 7,6 50 27 83 45 WNW 998,9 10 0,0
27.02.2020 07:00:00 11,3 10,4 48 26 74 40 W 997,4 10 0,2
27.02.2020 06:00:00 11,4 10,9 41 22 76 41 W 997,4 7 0,4
27.02.2020 05:00:00 11,3 11,0 45 25 72 39 W 997,6 2,5 0,6
27.02.2020 04:00:00 11,0 10,7 39 21 63 34 WSW 998,4 3,6 1,2
27.02.2020 03:00:00 10,5 10,2 36 19 64 35 SW 999,7 3,2 1,6
27.02.2020 02:00:00 9,7 9,4 30 16 53 28 SSW 1001,7 2,4 1,7
27.02.2020 01:00:00 8,1 7,7 27 15 48 26 S 1004,7 2,8 2,8
27.02.2020 00:00:00 7,7 6,9 21 11 34 19 S 1007,5 7 1,8
26.02.2020 23:00:00 7,4 5,9 18 10 29 16 SSW 1010,1 7 0,8
26.02.2020 22:00:00 7,0 5,1 11 6 18 10 SSW 1011,5 9 0,2
26.02.2020 21:00:00 6,9 4,6 13 7 27 14 SSW 1013,1 7 0,2
26.02.2020 20:00:00 7,4 3,1 15 8 24 13 WSW 1014,0 15 0,0
26.02.2020 19:00:00 7,6 2,5 16 9 24 13 WSW 1014,6 10 0,0
26.02.2020 18:00:00 8,0 2,9 16 9 34 19 W 1014,9 10 0,0
26.02.2020 17:00:00 8,6 2,4 21 11 35 19 W 1015,2 10 0,0
26.02.2020 16:00:00 8,5 1,6 24 13 37 20 W 1015,5 10 0,0
26.02.2020 15:00:00 8,8 2,1 22 12 39 21 W 1015,8 10 0,0
26.02.2020 14:00:00 8,5 2,3 19 11 35 19 WNW 1016,5 19 0,0
26.02.2020 13:00:00 7,5 2,2 22 12 44 24 NW 1016,6 18 0,0
26.02.2020 12:00:00 7,8 2,3 22 12 52 28 WNW 1016,2 10 0,0
26.02.2020 11:00:00 7,3 1,8 26 14 47 25 WNW 1016,0 19 0,0
26.02.2020 10:00:00 7,5 2,2 27 15 42 23 NW 1015,4 17 0,0
26.02.2020 09:00:00 5,5 1,2 26 14 53 28 NW 1014,4 10 0,0
26.02.2020 08:00:00 5,5 0,7 28 15 57 31 NW 1013,4 29 0,0
26.02.2020 07:00:00 5,4 1,3 30 16 62 33 NW 1012,9 29 0,0
26.02.2020 06:00:00 4,4 0,4 39 21 86 46 WNW 1012,2 10 0,2
26.02.2020 05:00:00 4,3 1,8 27 15 85 46 WNW 1012,1 18 0,6
26.02.2020 04:00:00 5,2 0,9 33 18 85 46 WNW 1011,7 32 0,0
26.02.2020 03:00:00 5,1 0,7 41 22 85 46 WNW 1011,4 10 0,8
26.02.2020 02:00:00 5,5 1,0 39 21 64 35 W 1010,9 10 0,0
26.02.2020 01:00:00 5,2 0,9 41 22 77 41 WNW 1010,6 10 0,2
26.02.2020 00:00:00 5,0 1,7 36 19 65 35 WNW 1010,2 19 1,2
25.02.2020 23:00:00 5,0 2,0 39 21 80 43 WNW 1010,1 34 0,6
25.02.2020 22:00:00 6,2 2,5 42 23 73 39 WNW 1009,8 6 0,2
25.02.2020 21:00:00 6,8 2,9 31 17 87 47 W 1009,6 17 0,2
25.02.2020 20:00:00 7,2 1,3 35 19 69 37 WNW 1009,8 20 0,0
25.02.2020 19:00:00 5,9 0,2 46 25 82 44 W 1010,0 19 0,0
25.02.2020 18:00:00 7,3 1,1 46 25 73 39 WNW 1009,6 10 0,0
25.02.2020 17:00:00 7,1 3,9 31 17 88 47 WNW 1009,4 4,4 0,8
25.02.2020 16:00:00 8,3 4,9 36 19 63 34 W 1009,0 20 1,2
25.02.2020 15:00:00 9,5 4,7 38 21 64 35 W 1009,2 14 0,0
25.02.2020 14:00:00 8,9 4,5 36 19 70 38 W 1010,1 12 0,8
25.02.2020 13:00:00 10,5 5,0 32 18 53 29 W 1010,4 15 0,0
25.02.2020 12:00:00 10,4 6,2 29 15 52 28 W 1010,9 13 0,0
25.02.2020 11:00:00 9,5 5,9 32 17 54 29 W 1011,1 16 -
25.02.2020 10:00:00 - - 24 13 59 32 W - 16 -
25.02.2020 09:00:00 8,6 5,3 24 13 47 26 W 1011,6 10 0,0
25.02.2020 08:00:00 7,7 4,5 29 16 57 31 W 1011,7 10 0,0
25.02.2020 07:00:00 7,8 4,6 22 12 37 20 W 1012,2 47 0,0
25.02.2020 06:00:00 7,5 4,8 29 16 51 28 W 1012,5 14 0,0
25.02.2020 05:00:00 8,4 5,0 22 12 46 25 W 1012,8 10 0,0
25.02.2020 04:00:00 8,4 5,5 24 13 39 21 W 1013,1 13 0,0
25.02.2020 03:00:00 8,5 5,6 16 9 27 14 W 1013,6 37 0,0
25.02.2020 02:00:00 8,4 5,9 13 7 28 15 WNW 1013,9 10 0,0
25.02.2020 01:00:00 8,7 6,7 17 9 31 17 WNW 1014,2 32 0,0
25.02.2020 00:00:00 8,9 8,3 19 11 31 17 WNW 1014,4 7 0,2
24.02.2020 23:00:00 9,3 9,0 18 10 39 21 W 1014,7 8 0,6
24.02.2020 22:00:00 10,2 9,7 18 10 33 18 W 1014,7 2,6 1,6
24.02.2020 21:00:00 10,4 9,9 21 11 37 20 W 1014,9 7 1,6
24.02.2020 20:00:00 10,7 10,2 25 13 43 23 W 1015,2 4,9 2,5
24.02.2020 19:00:00 10,7 10,4 30 16 50 27 WSW 1015,1 3,9 1,4
24.02.2020 18:00:00 10,6 10,3 33 18 59 32 WSW 1015,2 3,9 1,2
24.02.2020 17:00:00 10,5 10,0 34 18 61 33 WSW 1015,9 2,4 1,2
24.02.2020 16:00:00 10,4 9,8 37 20 55 30 SW 1016,5 1,7 0,6
24.02.2020 15:00:00 10,3 9,5 31 17 65 35 SW 1017,3 2,2 0,2
24.02.2020 14:00:00 10,6 8,9 34 18 56 30 SW 1018,2 5 0,0
24.02.2020 13:00:00 11,1 8,3 33 18 57 31 SW 1019,1 15 0,0
24.02.2020 12:00:00 10,7 8,1 29 16 59 32 SW 1020,2 10 0,0
24.02.2020 11:00:00 10,3 8,4 29 16 59 32 WSW 1020,8 10 0,0
24.02.2020 10:00:00 9,8 9,0 32 18 58 31 SW 1021,2 10 0,0
24.02.2020 09:00:00 10,0 9,2 34 18 53 29 SW 1021,3 10 0,0
24.02.2020 08:00:00 10,0 9,5 28 15 48 26 SW 1021,7 31 0,0
24.02.2020 07:00:00 10,2 9,9 25 14 57 31 SW 1022,8 16 0,2
24.02.2020 06:00:00 10,5 10,2 29 16 54 29 SSW 1023,2 3,8 0,2
24.02.2020 05:00:00 10,5 10,2 26 14 43 23 SW 1024,1 6 0,4
24.02.2020 04:00:00 10,6 10,3 26 14 40 22 SW 1024,9 5 0,2
24.02.2020 03:00:00 10,7 10,4 24 13 39 21 SW 1025,9 7 0,0
24.02.2020 02:00:00 10,9 10,7 25 13 41 22 SW 1026,5 1,6 0,0
24.02.2020 01:00:00 11,0 10,8 23 13 36 19 SW 1027,1 10 0,0
24.02.2020 00:00:00 11,1 10,9 22 12 38 21 SW 1027,5 0,8 0,2
23.02.2020 23:00:00 11,1 10,8 21 11 31 17 SW 1027,8 2,8 0,0
23.02.2020 22:00:00 11,2 11,0 21 11 32 17 SW 1027,7 0,8 0,0
23.02.2020 21:00:00 11,2 10,9 21 11 37 20 SW 1027,9 0,3 0,2
23.02.2020 20:00:00 11,3 11,0 21 11 32 17 WSW 1028,0 0,4 0,2
23.02.2020 19:00:00 11,4 11,1 22 12 42 23 WSW 1027,9 3,8 0,0
23.02.2020 18:00:00 11,3 11,0 25 14 44 24 WSW 1027,5 1,2 0,0
23.02.2020 17:00:00 11,4 11,1 24 13 42 23 WSW 1027,3 2,2 0,0
23.02.2020 16:00:00 11,6 11,3 27 15 42 23 WSW 1027,3 4,0 0,0
23.02.2020 15:00:00 11,5 11,2 27 15 48 26 WSW 1027,7 6 0,0
23.02.2020 14:00:00 11,7 11,4 31 17 54 29 WSW 1027,5 1,2 0,0
23.02.2020 13:00:00 11,7 11,4 30 16 51 28 WSW 1027,9 1,6 0,2
23.02.2020 12:00:00 11,3 11,0 34 18 54 29 WSW 1027,8 1,8 0,0
23.02.2020 11:00:00 11,1 10,8 32 17 52 28 WSW 1027,6 5 0,0
23.02.2020 10:00:00 10,8 10,5 34 18 54 29 WSW 1027,4 2,6 0,0
23.02.2020 09:00:00 10,7 10,4 34 18 57 31 WSW 1027,0 1,9 0,2
23.02.2020 08:00:00 10,6 10,4 30 16 57 31 SW 1026,5 2,5 0,0
23.02.2020 07:00:00 10,3 10,0 35 19 58 31 SW 1026,2 3,8 0,0
23.02.2020 06:00:00 10,4 10,1 32 17 58 32 SW 1026,6 3,0 0,0
23.02.2020 05:00:00 10,4 10,1 30 16 54 29 SW 1026,7 1,2 0,2
23.02.2020 04:00:00 10,5 10,3 29 16 55 30 SW 1027,5 0,5 0,0
23.02.2020 03:00:00 10,5 10,2 26 14 52 28 SW 1028,2 1,5 0,2
23.02.2020 02:00:00 10,4 10,1 29 16 61 33 SW 1028,5 2,7 0,2
23.02.2020 01:00:00 10,6 10,3 29 16 48 26 SW 1028,8 3,1 0,2
23.02.2020 00:00:00 10,7 10,4 29 16 46 25 SW 1029,4 0,9 0,2
22.02.2020 23:00:00 10,9 10,6 23 13 43 23 SW 1029,7 0,6 0,0
22.02.2020 22:00:00 11,0 10,7 23 12 42 23 SW 1029,7 0,6 0,2
22.02.2020 21:00:00 10,9 10,6 22 12 36 19 SW 1029,7 0,1 0,0
22.02.2020 20:00:00 11,0 10,7 20 11 35 19 WSW 1029,8 0,2 0,2

tt = Température de l'air
td = dewpoint
ff = Vitesse du vent
fx = gusts
dd = Direction du vent
ppp = reduced air pressure
vv = visibility
rr = Quantités de précipitations

stations d'obs. à proximité